ALK604 VCBI-YMML

Flight info

Callsign ALK604
Flight time N/A
Altitude 35000
Route ANUTI1D ANUTI DCT LAVIT N640 EMVAS/N0472F370 N640 NOPED/N0463F390 N640 AD V255 BENDO Y12 ARBEY
Aircraft A333/H-SDE3GHIJ2J3J5M1RVWXY/LB2D1

Departure

Time 2026-05-06 16:45
Airport Bandaranaike International Colombo Airport (VCBI)

Arrival

Time N/A
Airport Melbourne Airport (YMML)
Time Latitude Longitude Altitude Speed Heading
2026-05-06 16:25 7.17600 79.88405 31 ft 0 kts 37°
2026-05-06 16:33 7.17592 79.88399 31 ft 4 kts 41°
2026-05-06 16:33 7.17574 79.88379 31 ft 4 kts 51°
2026-05-06 16:33 7.17559 79.88364 27 ft 4 kts 349°
2026-05-06 16:34 7.17521 79.88390 28 ft 4 kts 309°
2026-05-06 16:34 7.17506 79.88412 28 ft 4 kts 302°
2026-05-06 16:34 7.17497 79.88425 29 ft 0 kts 307°
2026-05-06 16:37 7.17502 79.88418 30 ft 0 kts 307°
2026-05-06 16:37 7.17510 79.88408 28 ft 4 kts 307°
2026-05-06 16:37 7.17536 79.88374 28 ft 9 kts 307°
2026-05-06 16:37 7.17573 79.88324 31 ft 9 kts 307°
2026-05-06 16:38 7.17609 79.88277 31 ft 8 kts 308°
2026-05-06 16:38 7.17656 79.88260 31 ft 7 kts
2026-05-06 16:38 7.17697 79.88283 31 ft 8 kts 34°
2026-05-06 16:38 7.17756 79.88327 31 ft 12 kts 36°
2026-05-06 16:39 7.17831 79.88384 31 ft 15 kts 37°
2026-05-06 16:39 7.17888 79.88427 31 ft 15 kts 37°
2026-05-06 16:39 7.17971 79.88491 31 ft 15 kts 37°
2026-05-06 16:39 7.18081 79.88575 31 ft 15 kts 37°
2026-05-06 16:40 7.18134 79.88616 31 ft 14 kts 37°
2026-05-06 16:40 7.18220 79.88681 31 ft 17 kts 37°
2026-05-06 16:40 7.18321 79.88758 31 ft 19 kts 37°
2026-05-06 16:40 7.18428 79.88840 31 ft 21 kts 37°
2026-05-06 16:41 7.18544 79.88929 31 ft 21 kts 37°
2026-05-06 16:41 7.18653 79.89013 31 ft 19 kts 38°
2026-05-06 16:41 7.18758 79.89093 31 ft 19 kts 37°
2026-05-06 16:41 7.18860 79.89170 31 ft 18 kts 36°
2026-05-06 16:42 7.18959 79.89245 31 ft 18 kts 37°
2026-05-06 16:42 7.19054 79.89319 31 ft 17 kts 37°
2026-05-06 16:42 7.19144 79.89387 31 ft 12 kts 37°
2026-05-06 16:42 7.19203 79.89405 30 ft 8 kts 338°
2026-05-06 16:43 7.19240 79.89365 30 ft 8 kts 309°
2026-05-06 16:43 7.19273 79.89322 30 ft 8 kts 306°
2026-05-06 16:43 7.19291 79.89279 30 ft 5 kts 261°
2026-05-06 16:43 7.19270 79.89258 31 ft 7 kts 219°
2026-05-06 16:44 7.19141 79.89159 31 ft 49 kts 218°
2026-05-06 16:44 7.18710 79.88830 33 ft 105 kts 217°
2026-05-06 16:44 7.17989 79.88279 33 ft 154 kts 217°
2026-05-06 16:44 7.17035 79.87564 301 ft 179 kts 214°
2026-05-06 16:45 7.15999 79.86815 861 ft 188 kts 209°
2026-05-06 16:45 7.14689 79.86619 1329 ft 202 kts 164°
2026-05-06 16:45 7.13440 79.87292 1953 ft 209 kts 147°
2026-05-06 16:45 7.12210 79.88156 2155 ft 228 kts 146°
2026-05-06 16:46 7.10837 79.89088 2362 ft 246 kts 148°
2026-05-06 16:46 7.09354 79.90038 2788 ft 252 kts 149°
2026-05-06 16:46 7.07900 79.91002 3293 ft 256 kts 140°
2026-05-06 16:46 7.06599 79.92292 3732 ft 263 kts 133°
2026-05-06 16:47 7.05368 79.93671 4220 ft 267 kts 132°
2026-05-06 16:47 7.04130 79.95076 4752 ft 269 kts 132°
2026-05-06 16:47 7.02876 79.96489 5287 ft 271 kts 131°
2026-05-06 16:47 7.01610 79.97907 5819 ft 274 kts 131°
2026-05-06 16:48 7.00325 79.99334 6347 ft 277 kts 131°
2026-05-06 16:48 6.99019 80.00774 6866 ft 279 kts 131°
2026-05-06 16:48 6.97703 80.02222 7394 ft 282 kts 131°
2026-05-06 16:48 6.96373 80.03685 7920 ft 285 kts 131°
2026-05-06 16:49 6.95027 80.05165 8464 ft 287 kts 131°
2026-05-06 16:49 6.93671 80.06655 9021 ft 290 kts 131°
2026-05-06 16:49 6.92303 80.08158 9578 ft 293 kts 131°
2026-05-06 16:49 6.90920 80.09677 10082 ft 296 kts 131°
2026-05-06 16:50 6.89518 80.11218 10335 ft 310 kts 131°
2026-05-06 16:50 6.88029 80.12854 10524 ft 325 kts 131°
2026-05-06 16:50 6.86469 80.14568 10704 ft 339 kts 132°
2026-05-06 16:50 6.84846 80.16352 10880 ft 353 kts 132°
2026-05-06 16:51 6.83155 80.18208 11075 ft 365 kts 132°
2026-05-06 16:51 6.81417 80.20116 11393 ft 373 kts 132°
2026-05-06 16:51 6.79707 80.22095 11807 ft 376 kts 128°
2026-05-06 16:51 6.78074 80.24163 12250 ft 380 kts 128°
2026-05-06 16:52 6.76443 80.26267 12696 ft 383 kts 127°
2026-05-06 16:52 6.74800 80.28388 13133 ft 386 kts 128°
2026-05-06 16:52 6.73138 80.30530 13565 ft 390 kts 128°
2026-05-06 16:52 6.71461 80.32688 13986 ft 393 kts 128°
2026-05-06 16:53 6.69775 80.34856 14378 ft 396 kts 128°
2026-05-06 16:53 6.68073 80.37045 14766 ft 398 kts 128°
2026-05-06 16:53 6.66359 80.39247 15153 ft 401 kts 128°
2026-05-06 16:53 6.64635 80.41462 15541 ft 404 kts 128°
2026-05-06 16:54 6.62915 80.43710 15918 ft 406 kts 127°
2026-05-06 16:54 6.61228 80.45999 16291 ft 409 kts 126°
2026-05-06 16:54 6.59552 80.48323 16691 ft 412 kts 126°
2026-05-06 16:54 6.57872 80.50669 17053 ft 415 kts 126°
2026-05-06 16:55 6.56183 80.53031 17406 ft 417 kts 126°
2026-05-06 16:55 6.54481 80.55405 17762 ft 420 kts 126°
2026-05-06 16:55 6.52765 80.57792 18100 ft 423 kts 126°
2026-05-06 16:55 6.51035 80.60193 18405 ft 425 kts 126°
2026-05-06 16:56 6.49298 80.62599 18724 ft 426 kts 126°
2026-05-06 16:56 6.47543 80.64966 19039 ft 428 kts 128°
2026-05-06 16:56 6.45637 80.67321 19357 ft 430 kts 130°
2026-05-06 16:56 6.43689 80.69606 19640 ft 432 kts 131°
2026-05-06 16:57 6.41733 80.71852 19916 ft 433 kts 131°
2026-05-06 16:57 6.39741 80.74133 20216 ft 435 kts 131°
2026-05-06 16:57 6.37747 80.76425 20507 ft 436 kts 130°
2026-05-06 16:57 6.35751 80.78735 20783 ft 438 kts 130°
2026-05-06 16:58 6.33755 80.81057 21055 ft 440 kts 130°
2026-05-06 16:58 6.31753 80.83395 21347 ft 442 kts 130°
2026-05-06 16:58 6.29747 80.85741 21615 ft 443 kts 130°
2026-05-06 16:58 6.27738 80.88093 21879 ft 445 kts 130°
2026-05-06 16:59 6.25716 80.90460 22146 ft 447 kts 130°
2026-05-06 16:59 6.23693 80.92827 22474 ft 446 kts 130°
2026-05-06 16:59 6.21668 80.95195 22793 ft 447 kts 130°
2026-05-06 16:59 6.19641 80.97566 23046 ft 448 kts 130°
2026-05-06 17:00 6.17601 80.99951 23301 ft 450 kts 130°
2026-05-06 17:00 6.15557 81.02340 23534 ft 452 kts 130°
2026-05-06 17:00 6.13506 81.04737 23755 ft 453 kts 130°
2026-05-06 17:00 6.11446 81.07142 23977 ft 455 kts 130°
2026-05-06 17:01 6.09377 81.09546 24175 ft 456 kts 130°
2026-05-06 17:01 6.07292 81.11961 24401 ft 457 kts 130°
2026-05-06 17:01 6.05203 81.14378 24627 ft 459 kts 130°
2026-05-06 17:01 6.03106 81.16802 24853 ft 460 kts 130°
2026-05-06 17:02 6.01004 81.19233 25059 ft 462 kts 130°
2026-05-06 17:02 5.98893 81.21674 25237 ft 464 kts 130°
2026-05-06 17:02 5.96771 81.24130 25458 ft 465 kts 130°
2026-05-06 17:02 5.94648 81.26586 25688 ft 466 kts 130°
2026-05-06 17:03 5.92518 81.29051 25922 ft 467 kts 130°
2026-05-06 17:03 5.90387 81.31515 26223 ft 467 kts 130°
2026-05-06 17:03 5.88257 81.33979 26460 ft 468 kts 130°
2026-05-06 17:03 5.86122 81.36449 26673 ft 469 kts 130°
2026-05-06 17:04 5.83979 81.38927 26892 ft 470 kts 130°
2026-05-06 17:04 5.81863 81.41374 27104 ft 472 kts 130°
2026-05-06 17:04 5.79705 81.43868 27313 ft 473 kts 130°
2026-05-06 17:04 5.77550 81.46359 27552 ft 474 kts 130°
2026-05-06 17:05 5.75385 81.48861 27774 ft 475 kts 130°
2026-05-06 17:05 5.73216 81.51368 27991 ft 476 kts 130°
2026-05-06 17:05 5.71040 81.53882 28194 ft 478 kts 130°
2026-05-06 17:05 5.68858 81.56404 28402 ft 479 kts 130°
2026-05-06 17:06 5.66672 81.58929 28604 ft 480 kts 130°
2026-05-06 17:06 5.64477 81.61465 28783 ft 482 kts 130°
2026-05-06 17:06 5.62273 81.64012 28882 ft 485 kts 130°
2026-05-06 17:06 5.60060 81.66578 29103 ft 486 kts 130°
2026-05-06 17:07 5.57857 81.69138 29466 ft 483 kts 130°
2026-05-06 17:07 5.55658 81.71696 29680 ft 484 kts 130°
2026-05-06 17:07 5.53456 81.74258 29833 ft 486 kts 130°
2026-05-06 17:07 5.51243 81.76831 30036 ft 486 kts 130°
2026-05-06 17:08 5.49036 81.79397 30250 ft 485 kts 130°
2026-05-06 17:08 5.46831 81.81958 30477 ft 485 kts 130°
2026-05-06 17:08 5.44628 81.84517 30695 ft 484 kts 130°
2026-05-06 17:08 5.42429 81.87071 30918 ft 483 kts 130°
2026-05-06 17:09 5.40234 81.89620 31127 ft 483 kts 130°
2026-05-06 17:09 5.38040 81.92168 31329 ft 482 kts 130°
2026-05-06 17:09 5.35845 81.94716 31531 ft 482 kts 130°
2026-05-06 17:09 5.33659 81.97254 31761 ft 481 kts 130°
2026-05-06 17:10 5.31469 81.99796 31974 ft 480 kts 130°
2026-05-06 17:10 5.29288 82.02327 32194 ft 479 kts 130°
2026-05-06 17:10 5.27110 82.04854 32373 ft 480 kts 130°
2026-05-06 17:10 5.24922 82.07394 32486 ft 481 kts 130°
2026-05-06 17:11 5.22735 82.09931 32663 ft 481 kts 130°
2026-05-06 17:11 5.20545 82.12472 32836 ft 481 kts 130°
2026-05-06 17:11 5.18362 82.15003 33110 ft 479 kts 130°
2026-05-06 17:11 5.16187 82.17525 33353 ft 477 kts 130°
2026-05-06 17:12 5.14024 82.20033 33624 ft 475 kts 130°
2026-05-06 17:12 5.11861 82.22541 33737 ft 476 kts 130°
2026-05-06 17:12 5.09694 82.25055 33918 ft 476 kts 130°
2026-05-06 17:12 5.07525 82.27569 34033 ft 476 kts 130°
2026-05-06 17:13 5.05359 82.30080 34199 ft 475 kts 130°
2026-05-06 17:13 5.03230 82.32547 34407 ft 474 kts 130°
2026-05-06 17:13 5.01076 82.35044 34577 ft 473 kts 130°
2026-05-06 17:13 4.98928 82.37532 34773 ft 471 kts 130°
2026-05-06 17:14 4.96780 82.40021 34848 ft 472 kts 130°
2026-05-06 17:14 4.92481 82.45002 34857 ft 472 kts 130°
2026-05-06 17:15 4.88182 82.49980 34868 ft 472 kts 130°
2026-05-06 17:15 4.83892 82.54949 34868 ft 471 kts 130°
2026-05-06 17:16 4.79598 82.59919 34867 ft 471 kts 130°
2026-05-06 17:16 4.75305 82.64888 34849 ft 472 kts 130°
2026-05-06 17:17 4.71009 82.69860 34852 ft 471 kts 130°
2026-05-06 17:17 4.66720 82.74822 34868 ft 471 kts 130°
2026-05-06 17:18 4.62424 82.79792 34850 ft 472 kts 130°
2026-05-06 17:18 4.58125 82.84763 34850 ft 472 kts 130°
2026-05-06 17:19 4.53828 82.89732 34868 ft 471 kts 130°
2026-05-06 17:19 4.49533 82.94697 34861 ft 472 kts 130°
2026-05-06 17:20 4.45227 82.99673 34852 ft 473 kts 130°
2026-05-06 17:20 4.40954 83.04611 34850 ft 472 kts 130°
2026-05-06 17:21 4.36660 83.09573 34852 ft 472 kts 130°
2026-05-06 17:21 4.32358 83.14542 34856 ft 472 kts 130°
2026-05-06 17:22 4.28054 83.19513 34866 ft 471 kts 130°
2026-05-06 17:22 4.23765 83.24465 34854 ft 469 kts 130°
2026-05-06 17:23 4.19483 83.29409 34851 ft 470 kts 130°
2026-05-06 17:23 4.15195 83.34359 34869 ft 471 kts 130°
2026-05-06 17:24 4.10907 83.39307 34853 ft 470 kts 130°
2026-05-06 17:24 4.06623 83.44251 34871 ft 470 kts 130°
2026-05-06 17:25 4.02339 83.49193 34865 ft 471 kts 130°
2026-05-06 17:25 3.98045 83.54146 35011 ft 470 kts 130°
2026-05-06 17:25 3.95901 83.56619 35156 ft 469 kts 130°
2026-05-06 17:26 3.93767 83.59079 35324 ft 468 kts 130°
2026-05-06 17:26 3.91630 83.61544 35473 ft 468 kts 130°
2026-05-06 17:26 3.89499 83.64001 35624 ft 467 kts 130°
2026-05-06 17:26 3.87369 83.66457 35757 ft 467 kts 130°
2026-05-06 17:27 3.85242 83.68909 35899 ft 467 kts 130°
2026-05-06 17:27 3.83117 83.71359 36046 ft 466 kts 130°
2026-05-06 17:27 3.80989 83.73811 36181 ft 465 kts 130°
2026-05-06 17:27 3.78869 83.76255 36343 ft 464 kts 130°
2026-05-06 17:28 3.76754 83.78692 36505 ft 463 kts 130°
2026-05-06 17:28 3.74640 83.81128 36650 ft 463 kts 130°
2026-05-06 17:28 3.72529 83.83560 36761 ft 462 kts 130°